{"data":{"norad_id":63144,"epoch":"2026-05-25T01:33:47.747808Z","epoch_age_seconds":66559,"freshness":"FRESH","line1":"1 63144U 25043N   26145.06513597  .00195079  00000+0  14867-2 0  9994","line2":"2 63144  43.0011 150.3772 0004391 284.0150  76.0229 15.70859021 71485","mean_motion":15.70859021,"eccentricity":0.0004391,"inclination_deg":43.0011,"raan_deg":150.3772,"arg_perigee_deg":284.015,"mean_anomaly_deg":76.0229,"bstar":0.0014867,"rev_number":7148,"period_min":91.669588470346,"perigee_km":353.48354347275,"apogee_km":359.39784960585,"semimajor_km":6734.5776965393,"source":"CELESTRAK","updated_at":"2026-05-25T13:38:19.916336Z"}}